Time,TemperatureF,DewpointF,PressureIn,WindDirection,WindDirectionDegrees,WindSpeedMPH,WindSpeedGustMPH,Humidity,HourlyPrecipIn,Conditions,Clouds,dailyrainin,SoftwareType,DateUTC
2013-03-03 00:02:00,-999.0,-99.9,30.11,NNW,343,6.0,9.0,-999,-99.99,,,-99.99,,2013-03-03 05:02:00,
2013-03-03 00:12:00,-999.0,-99.9,30.11,NNW,345,7.0,9.0,-999,-99.99,,,-99.99,,2013-03-03 05:12:00,
2013-03-03 00:22:00,18.0,-99.9,30.11,NNW,344,7.0,10.0,-999,-99.99,,,-99.99,,2013-03-03 05:22:00,
2013-03-03 00:32:00,-999.0,-99.9,30.10,North,353,10.0,12.0,-999,-99.99,,,-99.99,,2013-03-03 05:32:00,
2013-03-03 00:42:00,-999.0,-99.9,30.10,North,358,7.0,10.0,-999,-99.99,,,-99.99,,2013-03-03 05:42:00,
2013-03-03 00:52:00,-999.0,-99.9,30.10,North,352,7.0,10.0,-999,-99.99,,,-99.99,,2013-03-03 05:52:00,
2013-03-03 01:02:00,-999.0,-99.9,30.10,NW,319,7.0,9.0,-999,-99.99,,,-99.99,,2013-03-03 06:02:00,
2013-03-03 01:11:00,-999.0,-99.9,30.10,NNW,331,8.0,9.0,-999,-99.99,,,-99.99,,2013-03-03 06:11:00,
2013-03-03 01:22:00,17.0,-99.9,30.10,NNW,337,7.0,9.0,-999,-99.99,,,-99.99,,2013-03-03 06:22:00,
2013-03-03 01:32:00,-999.0,-99.9,30.10,NW,325,8.0,9.0,-999,-99.99,,,-99.99,,2013-03-03 06:32:00,
2013-03-03 01:42:00,-999.0,-99.9,30.10,NNW,328,8.0,10.0,-999,-99.99,,,-99.99,,2013-03-03 06:42:00,
2013-03-03 01:52:00,16.0,-99.9,30.10,NNW,334,8.0,10.0,-999,-99.99,,,-99.99,,2013-03-03 06:52:00,
2013-03-03 02:01:00,-999.0,-99.9,30.10,NNW,343,6.0,9.0,-999,-99.99,,,-99.99,,2013-03-03 07:01:00,
2013-03-03 02:11:00,-999.0,-99.9,30.10,NNW,337,7.0,9.0,-999,-99.99,,,-99.99,,2013-03-03 07:11:00,
2013-03-03 02:22:00,-999.0,-99.9,30.10,NNW,345,6.0,9.0,-999,-99.99,,,-99.99,,2013-03-03 07:22:00,
2013-03-03 02:32:00,-999.0,-99.9,30.10,North,-999,6.0,9.0,-999,-99.99,,,-99.99,,2013-03-03 07:32:00,
2013-03-03 02:42:00,-999.0,-99.9,30.09,North,6,6.0,9.0,-999,-99.99,,,-99.99,,2013-03-03 07:42:00,
2013-03-03 02:52:00,15.0,-99.9,30.09,North,360,7.0,8.0,-999,-99.99,,,-99.99,,2013-03-03 07:52:00,
2013-03-03 03:01:00,-999.0,-99.9,30.09,North,1,6.0,9.0,-999,-99.99,,,-99.99,,2013-03-03 08:01:00,
2013-03-03 03:11:00,-999.0,-99.9,30.09,NNW,347,7.0,9.0,-999,-99.99,,,-99.99,,2013-03-03 08:11:00,
2013-03-03 03:21:00,14.0,-99.9,30.09,North,358,8.0,10.0,-999,-99.99,,,-99.99,,2013-03-03 08:21:00,
2013-03-03 03:32:00,-999.0,-99.9,30.08,NNW,348,6.0,9.0,-999,-99.99,,,-99.99,,2013-03-03 08:32:00,
2013-03-03 03:42:00,-999.0,-99.9,30.08,North,1,6.0,7.0,-999,-99.99,,,-99.99,,2013-03-03 08:42:00,
2013-03-03 03:54:00,14.0,-99.9,30.08,North,355,6.0,8.0,-999,-99.99,,,-99.99,,2013-03-03 08:54:00,
2013-03-03 04:02:00,-999.0,-99.9,30.08,NNW,346,6.0,8.0,-999,-99.99,,,-99.99,,2013-03-03 09:02:00,
2013-03-03 04:12:00,-999.0,-99.9,30.08,NNW,333,4.0,7.0,-999,-99.99,,,-99.99,,2013-03-03 09:12:00,
2013-03-03 04:22:00,9.0,-99.9,30.09,NNW,332,4.0,7.0,-999,-99.99,,,-99.99,,2013-03-03 09:22:00,
2013-03-03 04:32:00,-999.0,-99.9,30.09,NW,325,5.0,7.0,-999,-99.99,,,-99.99,,2013-03-03 09:32:00,
2013-03-03 04:42:00,-999.0,-99.9,30.09,NW,322,5.0,8.0,-999,-99.99,,,-99.99,,2013-03-03 09:42:00,
2013-03-03 04:52:00,12.0,-99.9,30.09,NW,322,8.0,9.0,-999,-99.99,,,-99.99,,2013-03-03 09:52:00,
2013-03-03 05:01:00,-999.0,-99.9,30.09,NW,326,7.0,9.0,-999,-99.99,,,-99.99,,2013-03-03 10:01:00,
2013-03-03 05:12:00,-999.0,-99.9,30.09,NNW,330,8.0,10.0,-999,-99.99,,,-99.99,,2013-03-03 10:12:00,
2013-03-03 05:22:00,12.0,-99.9,30.09,North,350,6.0,10.0,-999,-99.99,,,-99.99,,2013-03-03 10:22:00,
2013-03-03 05:32:00,-999.0,-99.9,30.09,North,355,8.0,10.0,-999,-99.99,,,-99.99,,2013-03-03 10:32:00,
2013-03-03 05:42:00,-999.0,-99.9,30.09,NE,35,4.0,5.0,-999,-99.99,,,-99.99,,2013-03-03 10:42:00,
2013-03-03 05:52:00,-999.0,-99.9,30.09,NE,40,6.0,7.0,-999,-99.99,,,-99.99,,2013-03-03 10:52:00,
2013-03-03 06:02:00,-999.0,-99.9,30.09,ENE,65,6.0,6.0,-999,-99.99,,,-99.99,,2013-03-03 11:02:00,
2013-03-03 06:11:00,-999.0,-99.9,30.10,NE,48,3.0,5.0,-999,-99.99,,,-99.99,,2013-03-03 11:11:00,
2013-03-03 06:22:00,9.0,-99.9,30.10,NNE,29,5.0,6.0,-999,-99.99,,,-99.99,,2013-03-03 11:22:00,
2013-03-03 06:32:00,-999.0,-99.9,30.10,NNE,27,6.0,9.0,-999,-99.99,,,-99.99,,2013-03-03 11:32:00,
2013-03-03 06:42:00,-999.0,-99.9,30.10,NNE,29,7.0,11.0,-999,-99.99,,,-99.99,,2013-03-03 11:42:00,
2013-03-03 06:53:00,7.0,-99.9,30.10,NE,41,6.0,9.0,-999,-99.99,,,-99.99,,2013-03-03 11:53:00,
2013-03-03 07:02:00,-999.0,-99.9,30.11,NE,54,5.0,6.0,-999,-99.99,,,-99.99,,2013-03-03 12:02:00,
2013-03-03 07:11:00,-999.0,-99.9,30.11,NE,50,5.0,6.0,-999,-99.99,,,-99.99,,2013-03-03 12:11:00,
2013-03-03 07:22:00,-999.0,-99.9,30.11,ENE,72,4.0,6.0,-999,-99.99,,,-99.99,,2013-03-03 12:22:00,
2013-03-03 07:32:00,-999.0,-99.9,30.11,ENE,66,4.0,6.0,-999,-99.99,,,-99.99,,2013-03-03 12:32:00,
2013-03-03 07:43:00,-999.0,-99.9,30.11,NE,52,4.0,5.0,-999,-99.99,,,-99.99,,2013-03-03 12:43:00,
2013-03-03 07:53:00,6.0,-99.9,30.12,ENE,63,4.0,6.0,-999,-99.99,,,-99.99,,2013-03-03 12:53:00,
2013-03-03 08:02:00,-999.0,-99.9,30.12,NE,43,4.0,5.0,-999,-99.99,,,-99.99,,2013-03-03 13:02:00,
2013-03-03 08:11:00,-999.0,-99.9,30.12,NNE,16,4.0,6.0,-999,-99.99,,,-99.99,,2013-03-03 13:11:00,
2013-03-03 08:22:00,8.0,-99.9,30.12,NNE,12,4.0,7.0,-999,-99.99,,,-99.99,,2013-03-03 13:22:00,
2013-03-03 08:32:00,-999.0,-99.9,30.13,North,7,5.0,7.0,-999,-99.99,,,-99.99,,2013-03-03 13:32:00,
2013-03-03 08:42:00,-999.0,-99.9,30.13,North,-999,7.0,9.0,-999,-99.99,,,-99.99,,2013-03-03 13:42:00,
2013-03-03 08:52:00,-999.0,-99.9,30.13,North,6,6.0,9.0,-999,-99.99,,,-99.99,,2013-03-03 13:52:00,
2013-03-03 09:02:00,-999.0,-99.9,30.13,North,360,4.0,8.0,-999,-99.99,,,-99.99,,2013-03-03 14:02:00,
2013-03-03 09:11:00,-999.0,-99.9,30.12,NNE,26,5.0,9.0,-999,-99.99,,,-99.99,,2013-03-03 14:11:00,
2013-03-03 09:22:00,8.0,-99.9,30.12,North,2,4.0,7.0,-999,-99.99,,,-99.99,,2013-03-03 14:22:00,
2013-03-03 09:32:00,-999.0,-99.9,30.12,NE,41,6.0,8.0,-999,-99.99,,,-99.99,,2013-03-03 14:32:00,
2013-03-03 09:42:00,-999.0,-99.9,30.12,North,358,7.0,8.0,-999,-99.99,,,-99.99,,2013-03-03 14:42:00,
2013-03-03 09:52:00,8.0,-99.9,30.12,NNE,17,6.0,7.0,-999,-99.99,,,-99.99,,2013-03-03 14:52:00,
2013-03-03 10:02:00,-999.0,-99.9,30.12,NE,53,5.0,5.0,-999,-99.99,,,-99.99,,2013-03-03 15:02:00,
2013-03-03 10:11:00,-999.0,-99.9,30.12,NE,38,5.0,7.0,-999,-99.99,,,-99.99,,2013-03-03 15:11:00,
2013-03-03 10:22:00,10.0,-99.9,30.11,ENE,59,4.0,6.0,-999,-99.99,,,-99.99,,2013-03-03 15:22:00,
2013-03-03 10:33:00,-999.0,-99.9,30.11,East,89,4.0,5.0,-999,-99.99,,,-99.99,,2013-03-03 15:33:00,
2013-03-03 10:42:00,-999.0,-99.9,30.11,ESE,113,2.0,4.0,-999,-99.99,,,-99.99,,2013-03-03 15:42:00,
2013-03-03 10:52:00,11.0,-99.9,30.11,SE,126,1.0,3.0,-999,-99.99,,,-99.99,,2013-03-03 15:52:00,
2013-03-03 11:12:00,-999.0,-99.9,30.11,West,271,0.0,2.0,-999,-99.99,,,-99.99,,2013-03-03 16:12:00,
2013-03-03 11:22:00,12.0,-99.9,30.11,WSW,237,2.0,3.0,-999,-99.99,,,-99.99,,2013-03-03 16:22:00,
2013-03-03 11:32:00,-999.0,-99.9,30.11,WNW,283,1.0,3.0,-999,-99.99,,,-99.99,,2013-03-03 16:32:00,
2013-03-03 11:42:00,-999.0,-99.9,30.11,West,263,2.0,3.0,-999,-99.99,,,-99.99,,2013-03-03 16:42:00,
2013-03-03 11:52:00,12.0,-99.9,30.11,West,273,2.0,3.0,-999,-99.99,,,-99.99,,2013-03-03 16:52:00,
2013-03-03 12:01:00,-999.0,-99.9,30.10,WNW,296,2.0,3.0,-999,-99.99,,,-99.99,,2013-03-03 17:01:00,
2013-03-03 12:12:00,-999.0,-99.9,30.10,WNW,294,3.0,3.0,-999,-99.99,,,-99.99,,2013-03-03 17:12:00,
2013-03-03 12:22:00,-999.0,-99.9,30.10,WNW,291,3.0,3.0,-999,-99.99,,,-99.99,,2013-03-03 17:22:00,
2013-03-03 12:32:00,-999.0,-99.9,30.10,NW,312,3.0,4.0,-999,-99.99,,,-99.99,,2013-03-03 17:32:00,
2013-03-03 12:42:00,-999.0,-99.9,30.09,NW,308,2.0,4.0,-999,-99.99,,,-99.99,,2013-03-03 17:42:00,
2013-03-03 12:52:00,16.0,-99.9,30.10,WNW,287,1.0,2.0,-999,-99.99,,,-99.99,,2013-03-03 17:52:00,
2013-03-03 13:02:00,-999.0,-99.9,30.09,SSW,192,1.0,2.0,-999,-99.99,,,-99.99,,2013-03-03 18:02:00,
2013-03-03 13:11:00,-999.0,-99.9,30.09,NW,318,1.0,2.0,-999,-99.99,,,-99.99,,2013-03-03 18:11:00,
2013-03-03 13:22:00,19.0,-99.9,30.08,South,185,0.0,3.0,-999,-99.99,,,-99.99,,2013-03-03 18:22:00,
2013-03-03 13:32:00,-999.0,-99.9,30.08,NNW,327,2.0,3.0,-999,-99.99,,,-99.99,,2013-03-03 18:32:00,
2013-03-03 13:42:00,-999.0,-99.9,30.07,NNW,336,3.0,6.0,-999,-99.99,,,-99.99,,2013-03-03 18:42:00,
2013-03-03 13:53:00,-999.0,-99.9,30.07,NNW,339,3.0,5.0,-999,-99.99,,,-99.99,,2013-03-03 18:53:00,
2013-03-03 14:02:00,-999.0,-99.9,30.07,West,272,6.0,9.0,-999,-99.99,,,-99.99,,2013-03-03 19:02:00,
2013-03-03 14:11:00,-999.0,-99.9,30.06,WNW,287,6.0,9.0,-999,-99.99,,,-99.99,,2013-03-03 19:11:00,
2013-03-03 14:22:00,19.0,-99.9,30.06,WNW,299,7.0,10.0,-999,-99.99,,,-99.99,,2013-03-03 19:22:00,
2013-03-03 14:32:00,-999.0,-99.9,30.06,West,259,7.0,12.0,-999,-99.99,,,-99.99,,2013-03-03 19:32:00,
2013-03-03 14:42:00,-999.0,-99.9,30.05,West,272,10.0,13.0,-999,-99.99,,,-99.99,,2013-03-03 19:42:00,
2013-03-03 14:52:00,19.0,-99.9,30.05,WNW,288,8.0,12.0,-999,-99.99,,,-99.99,,2013-03-03 19:52:00,
2013-03-03 15:02:00,-999.0,-99.9,30.05,WNW,286,7.0,10.0,-999,-99.99,,,-99.99,,2013-03-03 20:02:00,
2013-03-03 15:12:00,-999.0,-99.9,30.05,West,270,9.0,13.0,-999,-99.99,,,-99.99,,2013-03-03 20:12:00,
2013-03-03 15:22:00,20.0,-99.9,30.05,West,277,11.0,14.0,-999,-99.99,,,-99.99,,2013-03-03 20:22:00,
2013-03-03 15:32:00,-999.0,-99.9,30.05,West,276,10.0,15.0,-999,-99.99,,,-99.99,,2013-03-03 20:32:00,
2013-03-03 15:43:00,-999.0,-99.9,30.04,West,275,10.0,15.0,-999,-99.99,,,-99.99,,2013-03-03 20:43:00,
2013-03-03 15:53:00,20.0,-99.9,30.04,West,276,11.0,16.0,-999,-99.99,,,-99.99,,2013-03-03 20:53:00,
2013-03-03 16:02:00,-999.0,-99.9,30.04,West,277,11.0,16.0,-999,-99.99,,,-99.99,,2013-03-03 21:02:00,
2013-03-03 16:12:00,-999.0,-99.9,30.04,WNW,294,10.0,14.0,-999,-99.99,,,-99.99,,2013-03-03 21:12:00,
2013-03-03 16:22:00,21.0,-99.9,30.04,WNW,288,12.0,16.0,-999,-99.99,,,-99.99,,2013-03-03 21:22:00,
2013-03-03 16:32:00,-999.0,-99.9,30.04,WNW,288,12.0,17.0,-999,-99.99,,,-99.99,,2013-03-03 21:32:00,
2013-03-03 16:42:00,-999.0,-99.9,30.04,WNW,303,13.0,16.0,-999,-99.99,,,-99.99,,2013-03-03 21:42:00,
2013-03-03 16:52:00,-999.0,-99.9,30.04,WNW,297,13.0,16.0,-999,-99.99,,,-99.99,,2013-03-03 21:52:00,
2013-03-03 17:02:00,-999.0,-99.9,30.04,WNW,298,13.0,17.0,-999,-99.99,,,-99.99,,2013-03-03 22:02:00,
2013-03-03 17:11:00,-999.0,-99.9,30.05,NW,304,12.0,19.0,-999,-99.99,,,-99.99,,2013-03-03 22:11:00,
2013-03-03 17:22:00,-999.0,-99.9,30.05,WNW,303,13.0,18.0,-999,-99.99,,,-99.99,,2013-03-03 22:22:00,
2013-03-03 17:32:00,-999.0,-99.9,30.05,NW,308,14.0,16.0,-999,-99.99,,,-99.99,,2013-03-03 22:32:00,
2013-03-03 17:42:00,-999.0,-99.9,30.05,NW,308,13.0,18.0,-999,-99.99,,,-99.99,,2013-03-03 22:42:00,
2013-03-03 17:53:00,19.0,-99.9,30.06,NW,304,13.0,18.0,-999,-99.99,,,-99.99,,2013-03-03 22:53:00,
2013-03-03 18:02:00,-999.0,-99.9,30.06,NW,315,17.0,21.0,-999,-99.99,,,-99.99,,2013-03-03 23:02:00,
2013-03-03 18:11:00,-999.0,-99.9,30.06,NW,305,13.0,20.0,-999,-99.99,,,-99.99,,2013-03-03 23:11:00,
2013-03-03 18:22:00,19.0,-99.9,30.06,NW,304,12.0,16.0,-999,-99.99,,,-99.99,,2013-03-03 23:22:00,
2013-03-03 18:32:00,-999.0,-99.9,30.06,NW,305,13.0,18.0,-999,-99.99,,,-99.99,,2013-03-03 23:32:00,
2013-03-03 18:42:00,-999.0,-99.9,30.06,WNW,300,13.0,18.0,-999,-99.99,,,-99.99,,2013-03-03 23:42:00,
2013-03-03 18:52:00,-999.0,-99.9,30.06,NW,304,12.0,16.0,-999,-99.99,,,-99.99,,2013-03-03 23:52:00,
2013-03-03 19:02:00,-999.0,-99.9,30.06,WNW,300,11.0,17.0,-999,-99.99,,,-99.99,,2013-03-04 00:02:00,
2013-03-03 19:11:00,-999.0,-99.9,30.07,WNW,295,9.0,13.0,-999,-99.99,,,-99.99,,2013-03-04 00:11:00,
2013-03-03 19:22:00,18.0,-99.9,30.07,WNW,293,9.0,13.0,-999,-99.99,,,-99.99,,2013-03-04 00:22:00,
2013-03-03 19:32:00,-999.0,-99.9,30.07,WNW,284,9.0,15.0,-999,-99.99,,,-99.99,,2013-03-04 00:32:00,
2013-03-03 19:42:00,-999.0,-99.9,30.07,WNW,290,10.0,14.0,-999,-99.99,,,-99.99,,2013-03-04 00:42:00,
2013-03-03 19:52:00,17.0,-99.9,30.07,WNW,291,9.0,13.0,-999,-99.99,,,-99.99,,2013-03-04 00:52:00,
2013-03-03 20:02:00,-999.0,-99.9,30.07,WNW,287,9.0,11.0,-999,-99.99,,,-99.99,,2013-03-04 01:02:00,
2013-03-03 20:12:00,-999.0,-99.9,30.07,WNW,282,8.0,11.0,-999,-99.99,,,-99.99,,2013-03-04 01:12:00,
2013-03-03 20:22:00,-999.0,-99.9,30.07,West,281,8.0,11.0,-999,-99.99,,,-99.99,,2013-03-04 01:22:00,
2013-03-03 20:32:00,-999.0,-99.9,30.07,West,278,8.0,11.0,-999,-99.99,,,-99.99,,2013-03-04 01:32:00,
2013-03-03 20:42:00,-999.0,-99.9,30.07,West,279,8.0,10.0,-999,-99.99,,,-99.99,,2013-03-04 01:42:00,
2013-03-03 20:52:00,15.0,-99.9,30.07,West,281,7.0,10.0,-999,-99.99,,,-99.99,,2013-03-04 01:52:00,
2013-03-03 21:01:00,-999.0,-99.9,30.08,NW,308,2.0,4.0,-999,-99.99,,,-99.99,,2013-03-04 02:01:00,
2013-03-03 21:11:00,-999.0,-99.9,30.08,WNW,298,4.0,5.0,-999,-99.99,,,-99.99,,2013-03-04 02:11:00,
2013-03-03 21:22:00,15.0,-99.9,30.08,WNW,295,5.0,7.0,-999,-99.99,,,-99.99,,2013-03-04 02:22:00,
2013-03-03 21:32:00,-999.0,-99.9,30.08,NW,307,4.0,6.0,-999,-99.99,,,-99.99,,2013-03-04 02:32:00,
2013-03-03 21:42:00,-999.0,-99.9,30.08,East,79,1.0,3.0,-999,-99.99,,,-99.99,,2013-03-04 02:42:00,
2013-03-03 21:53:00,13.0,-99.9,30.08,SE,130,-999.0,1.0,-999,-99.99,,,-99.99,,2013-03-04 02:53:00,
2013-03-03 22:02:00,12.0,-99.9,30.08,WNW,290,0.0,1.0,-999,-99.99,,,-99.99,,2013-03-04 03:02:00,
2013-03-03 22:12:00,11.0,-99.9,30.09,West,275,2.0,3.0,-999,-99.99,,,-99.99,,2013-03-04 03:12:00,
2013-03-03 22:22:00,12.0,-99.9,30.09,NW,323,2.0,4.0,-999,-99.99,,,-99.99,,2013-03-04 03:22:00,
2013-03-03 22:32:00,-999.0,-99.9,30.09,North,356,3.0,6.0,-999,-99.99,,,-99.99,,2013-03-04 03:32:00,
2013-03-03 22:42:00,-999.0,-99.9,30.09,North,10,4.0,5.0,-999,-99.99,,,-99.99,,2013-03-04 03:42:00,
2013-03-03 22:53:00,17.0,-99.9,30.09,North,4,6.0,7.0,-999,-99.99,,,-99.99,,2013-03-04 03:53:00,
2013-03-03 23:02:00,-999.0,-99.9,30.09,NE,37,4.0,8.0,-999,-99.99,,,-99.99,,2013-03-04 04:02:00,
2013-03-03 23:11:00,-999.0,-99.9,30.09,NE,48,3.0,5.0,-999,-99.99,,,-99.99,,2013-03-04 04:11:00,
2013-03-03 23:22:00,15.0,-99.9,30.10,NNE,15,6.0,11.0,-999,-99.99,,,-99.99,,2013-03-04 04:22:00,
2013-03-03 23:32:00,-999.0,-99.9,30.09,NNE,21,8.0,11.0,-999,-99.99,,,-99.99,,2013-03-04 04:32:00,
2013-03-03 23:42:00,-999.0,-99.9,30.09,NNE,24,6.0,9.0,-999,-99.99,,,-99.99,,2013-03-04 04:42:00,
2013-03-03 23:52:00,-999.0,-99.9,30.09,NNE,14,5.0,7.0,-999,-99.99,,,-99.99,,2013-03-04 04:52:00,